Hourly Weather Roundup
Issued by NWS Central Illinois

Home | Current Version | Previous Version | Text Only | Print | Product List | Glossary On
Versions: 1 2 3 4 5 6 7 8 9 10 11 12 13 14 15 16 17 18 19 20 21 22 23 24 25 26 27 28 29 30 31 32 33 34 35 36 37 38 39 40 41 42 43 44 45 46 47 48 49 50
000
NZUS43 KILX 141410
HWRILX

AREA WEATHER ROUNDUP
NATIONAL WEATHER SERVICE, LINCOLN IL
900 AM CDT MON JUL 14 2014


CITY           SKY/WX    TMP DP  RH WIND       PRES   REMARKS
BLOOMINGTON    MOSUNNY   74  68  81 SW10      29.92S
CHAMPAIGN      SUNNY     75  69  81 S7        29.93R
DECATUR        SUNNY     78  69  73 SW8       29.93R HX  80
EFFINGHAM      CLOUDY    77  71  82 SW3       29.94S
FLORA          CLOUDY    74  72  93 W5        29.95R
GALESBURG      MOSUNNY   76  69  79 W6        29.90R
JACKSONVILLE   SUNNY     79  74  85 SW9       29.93S HX  82
LACON          SUNNY     75  68  80 SW7       29.87F
LAWRENCEVILLE  CLOUDY    76  75  97 SW7         N/A
LITCHFIELD     PTSUNNY   73  73 100 S3        29.95R
$$


CITY           SKY/WX    TMP DP  RH WIND       PRES   REMARKS
LINCOLN        MOSUNNY   80  71  74 SW5       29.89S HX  83
MACOMB         SUNNY     75  70  84 W9        29.93R
MATTOON        SUNNY     77  68  73 VRB3      29.93R
MT CARMEL AP   CLOUDY    77  73  88 SW8       29.94R
OLNEY-NOBLE AP CLOUDY    72  72 100 CALM      29.95R
PARIS          MOSUNNY   76  73  88 SW3       29.93S
PEORIA         SUNNY     78  70  76 SW7       29.89S HX  80
PONTIAC        MOSUNNY   75  66  73 S8        29.89S
RANTOUL        SUNNY     76  67  72 S8        29.93R
ROBINSON       PTSUNNY   76  73  92 W3        29.94R
SPRINGFIELD    SUNNY     79  71  76 SW8       29.92R HX  82
TAYLORVILLE    SUNNY     73  72  94 S5        29.94R
$$

...REGIONAL REPORTS...


CITY           SKY/WX    TMP DP  RH WIND       PRES   REMARKS
CHICAGO O`HARE PTSUNNY   69  59  70 CALM      29.89R
KANKAKEE       CLOUDY    74  66  76 S7        29.89F
MOLINE         SUNNY     73  63  70 NW5       29.89R
MOUNT VERNON   CLOUDY    73  68  83 SW7       29.96S
PITTSFIELD     SUNNY     79  71  77 SW9       29.94R HX  82
QUINCY         SUNNY     78  70  76 W7        29.92S HX  80
ROCKFORD       PTSUNNY   67  60  78 CALM      29.88S
$$


CITY           SKY/WX    TMP DP  RH WIND       PRES   REMARKS
BURLINGTON     MOSUNNY   75  68  78 NW3       29.90R
CEDAR RAPIDS   MOSUNNY   69  59  70 NW7       29.92R
DES MOINES     MOSUNNY   72  59  63 W9        29.97S
KIRKSVILLE     CLOUDY    73  68  84 NW8       29.97R
OTTUMWA        PTSUNNY   69  62  78 NW8       29.93S
ST LOUIS       MOSUNNY   79  72  79 SW3       29.96R HX  82
$$


CITY           SKY/WX    TMP DP  RH WIND       PRES   REMARKS
TERRE HAUTE    CLOUDY    75  69  81 SW6       29.93R
EVANSVILLE     CLOUDY    73  70  90 SW6       29.96S
INDIANAPOLIS   PTSUNNY   73  69  87 SW6       29.92S
LAFAYETTE      PTSUNNY   73  66  78 S6        29.90S
MADISON        MOSUNNY   70  55  59 W5        29.87S
MILWAUKEE      MOSUNNY   73  52  47 W10       29.86S
$$





USA.gov is the U.S. government's official web portal to all federal, state and local government web resources and services.